"datetime","temp","dp","rain_mm","uv","solar","mb","wind_mph","gust_mph","windchill","rh"
"2018-04-30 00:00:00",6.0,4.0,0.0,0.0,0,1006.7,2,10,2.8,87
"2018-04-30 00:01:00",6.0,4.0,0.0,0.0,0,1006.7,6,6,3.9,87
"2018-04-30 00:02:00",6.0,4.0,0.0,0.0,0,1006.8,6,6,3.9,87
"2018-04-30 00:03:00",6.0,4.0,0.0,0.0,0,1006.9,6,11,2.6,87
"2018-04-30 00:04:00",6.0,4.0,0.0,0.0,0,1006.8,3,4,4.7,87
"2018-04-30 00:05:00",6.0,4.0,0.0,0.0,0,1006.8,3,4,4.7,87
"2018-04-30 00:06:00",6.0,4.0,0.0,0.0,0,1006.8,2,4,4.7,87
"2018-04-30 00:07:00",6.0,4.0,0.0,0.0,0,1006.8,3,4,4.7,87
"2018-04-30 00:08:00",6.0,4.0,0.0,0.0,0,1006.9,2,4,4.7,87
"2018-04-30 00:09:00",6.0,4.0,0.0,0.0,0,1006.9,1,2,"",87
"2018-04-30 00:10:00",6.0,4.0,0.0,0.0,0,1006.9,2,3,"",87
"2018-04-30 00:11:00",6.0,4.0,0.0,0.0,0,1006.9,2,3,"",87
"2018-04-30 00:12:00",6.0,4.0,0.0,0.0,0,1007.0,2,4,4.7,87
"2018-04-30 00:13:00",6.0,4.0,0.0,0.0,0,1006.9,2,4,4.7,87
"2018-04-30 00:14:00",6.1,4.1,0.0,0.0,0,1007.0,1,3,"",87
"2018-04-30 00:15:00",6.0,4.0,0.0,0.0,0,1007.0,3,4,4.7,87
"2018-04-30 00:16:00",6.0,4.0,0.0,0.0,0,1007.0,3,4,4.9,87
"2018-04-30 00:17:00",6.0,4.0,0.0,0.0,0,1007.1,3,11,2.6,87
"2018-04-30 00:18:00",6.1,4.1,0.0,0.0,0,1007.0,4,6,3.9,87
"2018-04-30 00:19:00",6.0,4.0,0.0,0.0,0,1007.0,3,5,4.3,87
"2018-04-30 00:20:00",6.0,4.0,0.0,0.0,0,1007.0,3,7,3.6,87
"2018-04-30 00:21:00",6.0,4.0,0.0,0.0,0,1007.0,2,3,"",87
"2018-04-30 00:22:00",6.0,4.0,0.0,0.0,0,1006.9,3,5,4.3,87
"2018-04-30 00:23:00",6.1,4.3,0.0,0.0,0,1007.0,3,5,4.4,88
"2018-04-30 00:24:00",6.1,4.3,0.0,0.0,0,1006.9,2,3,"",88
"2018-04-30 00:25:00",6.1,4.3,0.0,0.0,0,1006.9,2,3,"",88
"2018-04-30 00:26:00",6.1,4.3,0.0,0.0,0,1006.8,3,5,4.3,88
"2018-04-30 00:27:00",6.0,4.2,0.0,0.0,0,1006.8,3,5,4.3,88
"2018-04-30 00:28:00",6.0,4.2,0.0,0.0,0,1006.8,3,7,3.6,88
"2018-04-30 00:29:00",6.0,4.2,0.0,0.0,0,1006.8,1,2,"",88
"2018-04-30 00:30:00",6.0,4.2,0.0,0.0,0,1006.7,2,3,"",88
"2018-04-30 00:31:00",6.0,4.2,0.0,0.0,0,1006.8,5,11,2.6,88
"2018-04-30 00:32:00",6.0,4.2,0.0,0.0,0,1006.7,3,7,3.6,88
"2018-04-30 00:33:00",6.0,4.2,0.0,0.0,0,1006.6,3,6,3.9,88
"2018-04-30 00:34:00",6.0,4.2,0.0,0.0,0,1006.7,4,6,3.9,88
"2018-04-30 00:35:00",6.0,4.2,0.0,0.0,0,1006.7,3,5,4.3,88
"2018-04-30 00:36:00",5.9,4.1,0.0,0.0,0,1006.8,5,13,2.1,88
"2018-04-30 00:37:00",5.9,4.1,0.0,0.0,0,1006.7,3,8,3.2,88
"2018-04-30 00:38:00",5.9,4.1,0.0,0.0,0,1006.8,5,10,2.7,88
"2018-04-30 00:39:00",5.9,3.9,0.0,0.0,0,1006.8,3,6,3.8,87
"2018-04-30 00:40:00",6.0,4.0,0.0,0.0,0,1006.9,5,10,2.7,87
"2018-04-30 00:41:00",6.0,4.0,0.0,0.0,0,1007.0,4,5,4.3,87
"2018-04-30 00:42:00",6.0,4.0,0.0,0.0,0,1006.9,2,4,4.7,87
"2018-04-30 00:43:00",6.0,4.0,0.0,0.0,0,1006.9,2,3,"",87
"2018-04-30 00:44:00",6.0,4.0,0.0,0.0,0,1006.9,1,2,"",87
"2018-04-30 00:45:00",6.0,4.0,0.0,0.0,0,1006.9,2,3,"",87
"2018-04-30 00:46:00",6.0,4.0,0.0,0.0,0,1006.9,2,3,"",87
"2018-04-30 00:47:00",6.0,4.0,0.0,0.0,0,1006.9,2,3,"",87
"2018-04-30 00:48:00",6.1,4.1,0.0,0.0,0,1006.8,2,3,"",87
"2018-04-30 00:49:00",6.0,4.2,0.0,0.0,0,1006.8,2,4,4.7,88
"2018-04-30 00:50:00",6.0,4.2,0.0,0.0,0,1006.9,2,3,"",88
"2018-04-30 00:51:00",6.0,4.0,0.0,0.0,0,1006.8,2,4,4.7,87
"2018-04-30 00:52:00",6.0,4.0,0.0,0.0,0,1006.9,4,8,3.3,87
"2018-04-30 00:53:00",5.9,3.9,0.0,0.0,0,1006.8,5,10,2.7,87
"2018-04-30 00:54:00",6.0,4.0,0.0,0.0,0,1006.7,3,4,4.6,87
"2018-04-30 00:55:00",6.0,4.0,0.0,0.0,0,1006.7,4,11,2.6,87
"2018-04-30 00:56:00",6.0,4.0,0.0,0.0,0,1006.7,5,12,2.4,87
"2018-04-30 00:57:00",6.0,4.0,0.0,0.0,0,1006.7,5,8,3.3,87
"2018-04-30 00:58:00",6.0,4.0,0.0,0.0,0,1006.6,3,7,3.6,87
"2018-04-30 00:59:00",6.0,4.0,0.0,0.0,0,1006.5,5,9,3.1,87
"2018-04-30 01:00:00",6.0,4.0,0.0,0.0,0,1006.6,3,6,3.9,87
"2018-04-30 01:01:00",6.0,4.0,0.0,0.0,0,1006.5,3,3,"",87
"2018-04-30 01:02:00",6.1,4.1,0.0,0.0,0,1006.5,4,5,4.3,87
"2018-04-30 01:03:00",6.1,4.1,0.0,0.0,0,1006.5,3,4,4.9,87
"2018-04-30 01:04:00",6.1,4.1,0.0,0.0,0,1006.6,1,4,4.9,87
"2018-04-30 01:05:00",6.1,4.1,0.0,0.0,0,1006.6,1,2,"",87
"2018-04-30 01:06:00",6.1,4.1,0.0,0.0,0,1006.6,2,6,4.0,87
"2018-04-30 01:07:00",6.1,4.1,0.0,0.0,0,1006.6,3,4,4.9,87
"2018-04-30 01:08:00",6.1,4.1,0.0,0.0,0,1006.6,3,7,3.7,87
"2018-04-30 01:09:00",6.1,4.1,0.0,0.0,0,1006.5,6,9,3.2,87
"2018-04-30 01:10:00",6.1,4.1,0.0,0.0,0,1006.5,4,8,3.4,87
"2018-04-30 01:11:00",6.1,4.1,0.0,0.0,0,1006.7,5,7,3.7,87
"2018-04-30 01:12:00",6.1,3.9,0.0,0.0,0,1006.6,2,5,4.4,86
"2018-04-30 01:13:00",6.1,3.9,0.0,0.0,0,1006.5,2,4,4.9,86
"2018-04-30 01:14:00",6.1,3.9,0.0,0.0,0,1006.6,3,4,4.9,86
"2018-04-30 01:15:00",6.1,3.9,0.0,0.0,0,1006.5,2,3,"",86
"2018-04-30 01:16:00",6.1,3.9,0.0,0.0,0,1006.5,3,7,3.7,86
"2018-04-30 01:17:00",6.1,3.9,0.0,0.0,0,1006.5,3,5,4.4,86
"2018-04-30 01:18:00",6.0,3.8,0.0,0.0,0,1006.5,5,12,2.5,86
"2018-04-30 01:19:00",6.1,3.9,0.0,0.0,0,1006.5,4,10,2.9,86
"2018-04-30 01:20:00",6.1,3.9,0.0,0.0,0,1006.5,3,4,4.7,86
"2018-04-30 01:21:00",6.1,3.9,0.0,0.0,0,1006.6,5,12,2.5,86
"2018-04-30 01:22:00",6.1,3.9,0.0,0.0,0,1006.5,2,5,4.3,86
"2018-04-30 01:23:00",6.1,3.9,0.0,0.0,0,1006.5,2,3,"",86
"2018-04-30 01:24:00",6.1,3.9,0.0,0.0,0,1006.6,2,3,"",86
"2018-04-30 01:25:00",6.0,3.8,0.0,0.0,0,1006.6,2,6,3.9,86
"2018-04-30 01:26:00",6.0,3.8,0.0,0.0,0,1006.6,4,5,4.3,86
"2018-04-30 01:27:00",6.0,3.8,0.0,0.0,0,1006.7,3,6,3.9,86
"2018-04-30 01:28:00",6.0,3.8,0.0,0.0,0,1006.6,4,6,3.9,86
"2018-04-30 01:29:00",6.1,3.9,0.0,0.0,0,1006.6,4,5,4.3,86
"2018-04-30 01:30:00",6.0,3.8,0.0,0.0,0,1006.5,4,9,3.1,86
"2018-04-30 01:31:00",6.0,3.7,0.0,0.0,0,1006.5,3,4,4.7,85
"2018-04-30 01:32:00",6.0,3.7,0.0,0.0,0,1006.6,4,6,4.0,85
"2018-04-30 01:33:00",6.0,3.7,0.0,0.0,0,1006.5,1,3,"",85
"2018-04-30 01:34:00",6.1,3.8,0.0,0.0,0,1006.6,3,4,4.7,85
"2018-04-30 01:35:00",6.0,3.7,0.0,0.0,0,1006.6,2,3,"",85
"2018-04-30 01:36:00",6.0,3.8,0.0,0.0,0,1006.6,3,6,4.0,86
"2018-04-30 01:37:00",6.1,3.8,0.0,0.0,0,1006.6,3,4,4.7,85
"2018-04-30 01:38:00",6.0,3.7,0.0,0.0,0,1006.6,3,8,3.4,85
"2018-04-30 01:39:00",6.1,3.9,0.0,0.0,0,1006.6,4,5,4.3,86
"2018-04-30 01:40:00",6.0,3.7,0.0,0.0,0,1006.7,3,5,4.3,85
"2018-04-30 01:41:00",6.0,3.7,0.0,0.0,0,1006.6,3,5,4.4,85
"2018-04-30 01:42:00",6.1,3.8,0.0,0.0,0,1006.6,3,5,4.3,85
"2018-04-30 01:43:00",6.0,3.7,0.0,0.0,0,1006.7,6,13,2.4,85
"2018-04-30 01:44:00",6.1,3.8,0.0,0.0,0,1006.7,3,4,4.7,85
"2018-04-30 01:45:00",6.1,3.8,0.0,0.0,0,1006.7,4,9,3.2,85
"2018-04-30 01:46:00",6.1,3.8,0.0,0.0,0,1006.7,4,8,3.4,85
"2018-04-30 01:47:00",6.1,3.8,0.0,0.0,0,1006.7,3,5,4.4,85
"2018-04-30 01:48:00",6.1,3.8,0.0,0.0,0,1006.7,2,4,4.9,85
"2018-04-30 01:49:00",6.1,3.8,0.0,0.0,0,1006.8,4,6,4.0,85
"2018-04-30 01:50:00",6.1,3.8,0.0,0.0,0,1006.8,3,6,4.0,85
"2018-04-30 01:51:00",6.1,3.8,0.0,0.0,0,1006.7,5,11,2.7,85
"2018-04-30 01:52:00",6.1,3.8,0.0,0.0,0,1006.7,3,4,4.9,85
"2018-04-30 01:53:00",6.1,3.6,0.0,0.0,0,1006.6,3,6,4.0,84
"2018-04-30 01:54:00",6.1,3.6,0.0,0.0,0,1006.6,3,5,4.4,84
"2018-04-30 01:55:00",6.1,3.6,0.0,0.0,0,1006.6,3,5,4.4,84
"2018-04-30 01:56:00",6.1,3.8,0.0,0.0,0,1006.6,3,5,4.4,85
"2018-04-30 01:57:00",6.1,3.8,0.0,0.0,0,1006.6,2,5,4.4,85
"2018-04-30 01:58:00",6.0,3.7,0.0,0.0,0,1006.6,2,3,"",85
"2018-04-30 01:59:00",6.0,3.7,0.0,0.0,0,1006.5,3,9,3.1,85
"2018-04-30 02:00:00",6.0,3.7,0.0,0.0,0,1006.5,3,4,4.7,85
"2018-04-30 02:01:00",6.0,3.7,0.0,0.0,0,1006.5,2,3,"",85
"2018-04-30 02:02:00",5.9,3.6,0.0,0.0,0,1006.5,3,4,4.6,85
"2018-04-30 02:03:00",5.9,3.6,0.0,0.0,0,1006.6,2,3,"",85
"2018-04-30 02:04:00",5.9,3.6,0.0,0.0,0,1006.6,3,6,3.8,85
"2018-04-30 02:05:00",5.9,3.6,0.0,0.0,0,1006.7,2,3,"",85
"2018-04-30 02:06:00",5.9,3.6,0.0,0.0,0,1006.7,4,8,3.2,85
"2018-04-30 02:07:00",5.9,3.6,0.0,0.0,0,1006.6,5,13,2.1,85
"2018-04-30 02:08:00",5.9,3.7,0.0,0.0,0,1006.6,3,4,4.6,86
"2018-04-30 02:09:00",5.9,3.7,0.0,0.0,0,1006.6,3,5,4.2,86
"2018-04-30 02:10:00",5.9,3.7,0.0,0.0,0,1006.5,3,4,4.6,86
"2018-04-30 02:11:00",5.9,3.7,0.0,0.0,0,1006.6,3,5,4.2,86
"2018-04-30 02:12:00",5.9,3.7,0.0,0.0,0,1006.6,2,3,"",86
"2018-04-30 02:13:00",5.9,3.7,0.0,0.0,0,1006.7,2,3,"",86
"2018-04-30 02:14:00",5.9,3.7,0.0,0.0,0,1006.7,3,6,3.8,86
"2018-04-30 02:15:00",5.9,3.7,0.0,0.0,0,1006.7,3,6,3.8,86
"2018-04-30 02:16:00",5.8,3.6,0.0,0.0,0,1006.7,4,11,2.5,86
"2018-04-30 02:17:00",5.8,3.6,0.0,0.0,0,1006.7,3,4,4.5,86
"2018-04-30 02:18:00",5.8,3.6,0.0,0.0,0,1006.7,2,4,4.5,86
"2018-04-30 02:19:00",5.8,3.6,0.0,0.0,0,1006.6,2,3,"",86
"2018-04-30 02:20:00",5.8,3.6,0.0,0.0,0,1006.6,2,4,4.5,86
"2018-04-30 02:21:00",5.8,3.6,0.0,0.0,0,1006.5,2,3,"",86
"2018-04-30 02:22:00",5.8,3.8,0.0,0.0,0,1006.5,2,3,"",87
"2018-04-30 02:23:00",5.8,3.8,0.0,0.0,0,1006.5,2,3,"",87
"2018-04-30 02:24:00",5.8,3.8,0.0,0.0,0,1006.5,4,6,3.7,87
"2018-04-30 02:25:00",5.8,3.8,0.0,0.0,0,1006.5,4,8,3.1,87
"2018-04-30 02:26:00",5.8,3.8,0.0,0.0,0,1006.5,3,5,3.9,87
"2018-04-30 02:27:00",5.7,3.7,0.0,0.0,0,1006.5,3,4,4.4,87
"2018-04-30 02:28:00",5.7,3.7,0.0,0.0,0,1006.4,2,4,4.5,87
"2018-04-30 02:29:00",5.7,3.5,0.0,0.0,0,1006.4,2,3,"",86
"2018-04-30 02:30:00",5.8,3.8,0.0,0.0,0,1006.4,2,3,"",87
"2018-04-30 02:31:00",5.8,3.8,0.0,0.0,0,1006.3,3,6,3.7,87
"2018-04-30 02:32:00",5.8,3.8,0.0,0.0,0,1006.3,4,6,3.7,87
"2018-04-30 02:33:00",5.8,3.8,0.0,0.0,0,1006.3,6,10,2.6,87
"2018-04-30 02:34:00",5.8,3.8,0.0,0.0,0,1006.3,4,6,3.7,87
"2018-04-30 02:35:00",5.7,3.5,0.0,0.0,0,1006.2,3,4,4.5,86
"2018-04-30 02:36:00",5.8,3.6,0.0,0.0,0,1006.2,3,8,3.1,86
"2018-04-30 02:37:00",5.8,3.6,0.0,0.0,0,1006.2,4,10,2.6,86
"2018-04-30 02:38:00",5.8,3.6,0.0,0.0,0,1006.3,3,5,4.1,86
"2018-04-30 02:39:00",5.8,3.6,0.0,0.0,0,1006.1,2,4,4.5,86
"2018-04-30 02:40:00",5.8,3.6,0.0,0.0,0,1006.2,2,4,4.5,86
"2018-04-30 02:41:00",5.8,3.6,0.0,0.0,0,1006.2,2,3,"",86
"2018-04-30 02:42:00",5.8,3.6,0.0,0.0,0,1006.2,2,2,"",86
"2018-04-30 02:43:00",5.8,3.6,0.0,0.0,0,1006.2,3,6,3.7,86
"2018-04-30 02:44:00",5.7,3.5,0.0,0.0,0,1006.2,3,3,"",86
"2018-04-30 02:45:00",5.7,3.5,0.0,0.0,0,1006.2,3,5,3.9,86
"2018-04-30 02:46:00",5.7,3.5,0.0,0.0,0,1006.1,4,6,3.7,86
"2018-04-30 02:47:00",5.8,3.6,0.0,0.0,0,1006.1,4,9,2.7,86
"2018-04-30 02:48:00",5.7,3.5,0.0,0.0,0,1006.0,3,5,4.1,86
"2018-04-30 02:49:00",5.7,3.5,0.0,0.0,0,1006.0,2,4,4.4,86
"2018-04-30 02:50:00",5.7,3.5,0.0,0.0,0,1006.0,3,6,3.6,86
"2018-04-30 02:51:00",5.7,3.5,0.0,0.0,0,1005.9,3,5,3.9,86
"2018-04-30 02:52:00",5.7,3.5,0.0,0.0,0,1005.9,4,6,3.6,86
"2018-04-30 02:53:00",5.7,3.5,0.0,0.0,0,1005.9,3,4,4.4,86
"2018-04-30 02:54:00",5.7,3.5,0.0,0.0,0,1005.9,3,5,3.9,86
"2018-04-30 02:55:00",5.7,3.7,0.0,0.0,0,1005.8,3,5,3.9,87
"2018-04-30 02:56:00",5.7,3.7,0.0,0.0,0,1005.8,2,4,4.4,87
"2018-04-30 02:57:00",5.7,3.7,0.0,0.0,0,1005.8,4,11,2.2,87
"2018-04-30 02:58:00",5.7,3.7,0.0,0.0,0,1005.7,4,4,4.4,87
"2018-04-30 02:59:00",5.7,3.7,0.0,0.0,0,1005.8,2,4,4.4,87
"2018-04-30 03:00:00",5.7,3.7,0.0,0.0,0,1005.7,2,4,4.4,87
"2018-04-30 03:01:00",5.6,3.6,0.0,0.0,0,1005.7,4,6,3.6,87
"2018-04-30 03:02:00",5.6,3.6,0.0,0.0,0,1005.6,3,4,4.3,87
"2018-04-30 03:03:00",5.6,3.6,0.0,0.0,0,1005.6,2,4,4.3,87
"2018-04-30 03:04:00",5.6,3.6,0.0,0.0,0,1005.6,2,3,"",87
"2018-04-30 03:05:00",5.6,3.6,0.0,0.0,0,1005.6,3,5,3.8,87
"2018-04-30 03:06:00",5.6,3.6,0.0,0.0,0,1005.6,3,7,3.1,87
"2018-04-30 03:07:00",5.6,3.6,0.0,0.0,0,1005.6,4,6,3.4,87
"2018-04-30 03:08:00",5.6,3.8,0.0,0.0,0,1005.7,8,19,0.8,88
"2018-04-30 03:09:00",5.6,3.6,0.0,0.0,0,1005.7,5,8,2.8,87
"2018-04-30 03:10:00",5.5,3.5,0.0,0.0,0,1005.7,7,12,1.8,87
"2018-04-30 03:11:00",5.5,3.5,0.0,0.0,0,1005.6,4,6,3.3,87
"2018-04-30 03:12:00",5.6,3.8,0.0,0.0,0,1005.6,2,4,4.2,88
"2018-04-30 03:13:00",5.5,3.7,0.0,0.0,0,1005.7,4,8,2.7,88
"2018-04-30 03:14:00",5.5,3.7,0.0,0.0,0,1005.7,4,8,2.7,88
"2018-04-30 03:15:00",5.5,3.7,0.0,0.0,0,1005.6,4,11,2.0,88
"2018-04-30 03:16:00",5.5,3.7,0.0,0.0,0,1005.6,2,4,4.2,88
"2018-04-30 03:17:00",5.5,3.7,0.0,0.0,0,1005.6,1,2,"",88
"2018-04-30 03:18:00",5.5,3.7,0.0,0.0,0,1005.6,2,4,4.2,88
"2018-04-30 03:19:00",5.4,3.6,0.0,0.0,0,1005.6,3,4,4.0,88
"2018-04-30 03:20:00",5.4,3.6,0.0,0.0,0,1005.6,3,6,3.2,88
"2018-04-30 03:21:00",5.4,3.6,0.0,0.0,0,1005.6,5,6,3.2,88
"2018-04-30 03:22:00",5.4,3.6,0.0,0.0,0,1005.7,5,8,2.6,88
"2018-04-30 03:23:00",5.4,3.6,0.0,0.0,0,1005.6,2,5,3.6,88
"2018-04-30 03:24:00",5.4,3.6,0.0,0.0,0,1005.6,3,4,4.0,88
"2018-04-30 03:25:00",5.3,3.5,0.0,0.0,0,1005.6,3,7,2.9,88
"2018-04-30 03:26:00",5.3,3.5,0.0,0.0,0,1005.6,4,8,2.5,88
"2018-04-30 03:27:00",5.3,3.5,0.0,0.0,0,1005.6,4,6,3.1,88
"2018-04-30 03:28:00",5.3,3.6,0.0,0.0,0,1005.7,3,5,3.5,89
"2018-04-30 03:29:00",5.3,3.6,0.0,0.0,0,1005.6,3,5,3.5,89
"2018-04-30 03:30:00",5.3,3.6,0.0,0.0,0,1005.6,2,3,"",89
"2018-04-30 03:31:00",5.3,3.6,0.0,0.0,0,1005.7,2,4,3.9,89
"2018-04-30 03:32:00",5.3,3.6,0.0,0.0,0,1005.7,3,6,3.1,89
"2018-04-30 03:33:00",5.3,3.6,0.2,0.0,0,1005.6,3,4,3.9,89
"2018-04-30 03:34:00",5.3,3.6,0.2,0.0,0,1005.6,3,4,3.9,89
"2018-04-30 03:35:00",5.3,3.6,0.2,0.0,0,1005.5,3,6,3.1,89
"2018-04-30 03:36:00",5.3,3.6,0.2,0.0,0,1005.5,3,4,3.9,89
"2018-04-30 03:37:00",5.3,3.6,0.2,0.0,0,1005.5,3,5,3.5,89
"2018-04-30 03:38:00",5.3,3.6,0.2,0.0,0,1005.5,5,8,2.5,89
"2018-04-30 03:39:00",5.3,3.6,0.2,0.0,0,1005.5,3,5,3.5,89
"2018-04-30 03:40:00",5.3,3.6,0.2,0.0,0,1005.4,3,5,3.5,89
"2018-04-30 03:41:00",5.3,3.6,0.2,0.0,0,1005.4,4,6,3.1,89
"2018-04-30 03:42:00",5.3,3.6,0.2,0.0,0,1005.4,5,8,2.5,89
"2018-04-30 03:43:00",5.3,3.6,0.2,0.0,0,1005.4,6,11,1.7,89
"2018-04-30 03:44:00",5.3,3.6,0.2,0.0,0,1005.4,3,5,3.5,89
"2018-04-30 03:45:00",5.3,3.6,0.2,0.0,0,1005.4,2,6,3.1,89
"2018-04-30 03:46:00",5.3,3.6,0.2,0.0,0,1005.3,4,10,2.0,89
"2018-04-30 03:47:00",5.3,3.6,0.2,0.0,0,1005.2,3,5,3.5,89
"2018-04-30 03:48:00",5.3,3.6,0.2,0.0,0,1005.3,3,4,3.8,89
"2018-04-30 03:49:00",5.2,3.5,0.2,0.0,0,1005.2,3,4,3.8,89
"2018-04-30 03:50:00",5.2,3.5,0.2,0.0,0,1005.3,3,5,3.4,89
"2018-04-30 03:51:00",5.2,3.5,0.2,0.0,0,1005.2,2,6,3.0,89
"2018-04-30 03:52:00",5.2,3.5,0.2,0.0,0,1005.2,6,11,1.6,89
"2018-04-30 03:53:00",5.2,3.5,0.2,0.0,0,1005.4,4,10,1.8,89
"2018-04-30 03:54:00",5.2,3.4,0.2,0.0,0,1005.4,3,5,3.4,88
"2018-04-30 03:55:00",5.2,3.5,0.2,0.0,0,1005.3,3,6,3.1,89
"2018-04-30 03:56:00",5.2,3.5,0.2,0.0,0,1005.3,4,6,3.0,89
"2018-04-30 03:57:00",5.2,3.5,0.2,0.0,0,1005.3,2,3,"",89
"2018-04-30 03:58:00",5.2,3.5,0.2,0.0,0,1005.3,3,4,3.8,89
"2018-04-30 03:59:00",5.3,3.6,0.2,0.0,0,1005.2,7,14,1.0,89
"2018-04-30 04:00:00",5.2,3.4,0.2,0.0,0,1005.3,3,5,3.5,88
"2018-04-30 04:01:00",5.3,3.5,0.2,0.0,0,1005.3,3,5,3.4,88
"2018-04-30 04:02:00",5.3,3.5,0.2,0.0,0,1005.4,3,10,2.0,88
"2018-04-30 04:03:00",5.3,3.5,0.2,0.0,0,1005.3,3,4,3.9,88
"2018-04-30 04:04:00",5.3,3.6,0.2,0.0,0,1005.3,5,12,1.4,89
"2018-04-30 04:05:00",5.2,3.5,0.2,0.0,0,1005.3,3,5,3.5,89
"2018-04-30 04:06:00",5.2,3.5,0.2,0.0,0,1005.2,2,3,"",89
"2018-04-30 04:07:00",5.2,3.5,0.2,0.0,0,1005.3,3,5,3.4,89
"2018-04-30 04:08:00",5.2,3.5,0.2,0.0,0,1005.2,2,5,3.4,89
"2018-04-30 04:09:00",5.2,3.5,0.2,0.0,0,1005.1,4,5,3.4,89
"2018-04-30 04:10:00",5.2,3.5,0.2,0.0,0,1005.1,3,5,3.4,89
"2018-04-30 04:11:00",5.2,3.5,0.2,0.0,0,1005.1,3,5,3.4,89
"2018-04-30 04:12:00",5.2,3.5,0.2,0.0,0,1005.1,2,4,3.8,89
"2018-04-30 04:13:00",5.2,3.5,0.2,0.0,0,1005.0,3,8,2.2,89
"2018-04-30 04:14:00",5.2,3.5,0.2,0.0,0,1005.0,3,5,3.2,89
"2018-04-30 04:15:00",5.1,3.4,0.2,0.0,0,1005.0,2,3,"",89
"2018-04-30 04:16:00",5.2,3.5,0.2,0.0,0,1005.0,2,3,"",89
"2018-04-30 04:17:00",5.1,3.4,0.2,0.0,0,1005.0,2,3,"",89
"2018-04-30 04:18:00",5.1,3.4,0.2,0.0,0,1005.0,3,6,2.9,89
"2018-04-30 04:19:00",5.1,3.4,0.2,0.0,0,1005.0,2,4,3.7,89
"2018-04-30 04:20:00",5.1,3.4,0.2,0.0,0,1004.9,2,3,"",89
"2018-04-30 04:21:00",5.1,3.6,0.2,0.0,0,1004.9,3,4,3.7,90
"2018-04-30 04:22:00",5.1,3.6,0.2,0.0,0,1004.9,1,2,"",90
"2018-04-30 04:23:00",5.1,3.6,0.2,0.0,0,1004.9,2,4,3.7,90
"2018-04-30 04:24:00",5.1,3.6,0.2,0.0,0,1004.9,3,5,3.2,90
"2018-04-30 04:25:00",5.1,3.6,0.2,0.0,0,1004.9,3,4,3.7,90
"2018-04-30 04:26:00",5.1,3.6,0.2,0.0,0,1004.9,3,5,3.2,90
"2018-04-30 04:27:00",5.1,3.6,0.2,0.0,0,1004.9,3,4,3.7,90
"2018-04-30 04:28:00",5.1,3.6,0.2,0.0,0,1004.9,3,4,3.7,90
"2018-04-30 04:29:00",5.1,3.6,0.2,0.0,0,1004.9,5,9,2.0,90
"2018-04-30 04:30:00",5.1,3.6,0.2,0.0,0,1004.9,5,9,2.0,90
"2018-04-30 04:31:00",5.1,3.6,0.2,0.0,0,1004.9,3,5,3.2,90
"2018-04-30 04:32:00",5.1,3.6,0.2,0.0,0,1004.8,2,4,3.7,90
"2018-04-30 04:33:00",5.1,3.6,0.2,0.0,0,1004.9,2,3,"",90
"2018-04-30 04:34:00",5.1,3.6,0.2,0.0,0,1004.8,1,2,"",90
"2018-04-30 04:35:00",5.1,3.6,0.2,0.0,0,1004.7,2,3,"",90
"2018-04-30 04:36:00",5.1,3.6,0.2,0.0,0,1004.7,2,5,3.2,90
"2018-04-30 04:37:00",5.1,3.6,0.2,0.0,0,1004.7,3,5,3.2,90
"2018-04-30 04:38:00",5.1,3.6,0.2,0.0,0,1004.7,2,3,"",90
"2018-04-30 04:39:00",5.1,3.4,0.2,0.0,0,1004.7,2,3,"",89
"2018-04-30 04:40:00",5.1,3.4,0.2,0.0,0,1004.8,2,3,"",89
"2018-04-30 04:41:00",5.1,3.4,0.2,0.0,0,1004.8,2,4,3.7,89
"2018-04-30 04:42:00",5.1,3.4,0.2,0.0,0,1004.7,3,5,3.2,89
"2018-04-30 04:43:00",5.1,3.4,0.2,0.0,0,1004.8,3,7,2.5,89
"2018-04-30 04:44:00",5.1,3.4,0.2,0.0,0,1004.7,4,6,2.9,89
"2018-04-30 04:45:00",5.1,3.4,0.2,0.0,0,1004.8,3,4,3.7,89
"2018-04-30 04:46:00",5.1,3.4,0.2,0.0,0,1004.8,3,4,3.7,89
"2018-04-30 04:47:00",5.1,3.4,0.2,0.0,0,1004.7,2,3,"",89
"2018-04-30 04:48:00",5.1,3.4,0.2,0.0,0,1004.8,3,3,"",89
"2018-04-30 04:49:00",5.2,3.5,0.2,0.0,0,1004.8,2,2,"",89
"2018-04-30 04:50:00",5.2,3.5,0.2,0.0,0,1004.8,2,3,"",89
"2018-04-30 04:51:00",5.2,3.5,0.2,0.0,0,1004.7,3,4,3.8,89
"2018-04-30 04:52:00",5.2,3.5,0.2,0.0,0,1004.8,1,2,"",89
"2018-04-30 04:53:00",5.2,3.5,0.2,0.0,0,1004.7,1,3,"",89
"2018-04-30 04:54:00",5.2,3.5,0.2,0.0,0,1004.8,4,8,2.3,89
"2018-04-30 04:55:00",5.2,3.5,0.2,0.0,0,1004.8,4,9,2.1,89
"2018-04-30 04:56:00",5.2,3.5,0.2,0.0,0,1004.8,5,10,1.8,89
"2018-04-30 04:57:00",5.2,3.4,0.2,0.0,0,1004.7,3,4,3.8,88
"2018-04-30 04:58:00",5.2,3.4,0.2,0.0,0,1004.6,2,3,"",88
"2018-04-30 04:59:00",5.2,3.4,0.2,0.0,0,1004.6,1,2,"",88
"2018-04-30 05:00:00",5.2,3.4,0.2,0.0,0,1004.6,2,5,3.4,88
"2018-04-30 05:01:00",5.2,3.4,0.2,0.0,0,1004.5,3,5,3.4,88
"2018-04-30 05:02:00",5.2,3.4,0.2,0.0,0,1004.6,3,5,3.4,88
"2018-04-30 05:03:00",5.2,3.4,0.2,0.0,0,1004.4,5,12,1.4,88
"2018-04-30 05:04:00",5.2,3.4,0.2,0.0,0,1004.5,2,5,3.4,88
"2018-04-30 05:05:00",5.2,3.4,0.2,0.0,0,1004.5,3,4,3.8,88
"2018-04-30 05:06:00",5.2,3.4,0.2,0.0,0,1004.4,3,6,3.0,88
"2018-04-30 05:07:00",5.2,3.4,0.2,0.0,0,1004.4,3,5,3.4,88
"2018-04-30 05:08:00",5.2,3.4,0.2,0.0,0,1004.4,3,5,3.4,88
"2018-04-30 05:09:00",5.2,3.4,0.2,0.0,0,1004.4,5,10,1.8,88
"2018-04-30 05:10:00",5.2,3.4,0.2,0.0,0,1004.4,3,6,3.0,88
"2018-04-30 05:11:00",5.2,3.4,0.2,0.0,0,1004.3,3,4,3.8,88
"2018-04-30 05:12:00",5.2,3.4,0.2,0.0,0,1004.4,4,8,2.3,88
"2018-04-30 05:13:00",5.2,3.4,0.2,0.0,0,1004.3,3,4,3.8,88
"2018-04-30 05:14:00",5.2,3.4,0.2,0.0,0,1004.4,3,4,3.8,88
"2018-04-30 05:15:00",5.2,3.4,0.2,0.0,0,1004.4,4,5,3.4,88
"2018-04-30 05:16:00",5.2,3.4,0.2,0.0,0,1004.3,6,15,0.9,88
"2018-04-30 05:17:00",5.2,3.4,0.2,0.0,0,1004.2,6,10,1.8,88
"2018-04-30 05:18:00",5.2,3.4,0.2,0.0,0,1004.3,4,6,3.0,88
"2018-04-30 05:19:00",5.2,3.2,0.2,0.0,0,1004.2,3,5,3.4,87
"2018-04-30 05:20:00",5.2,3.2,0.2,0.0,0,1004.3,3,9,2.1,87
"2018-04-30 05:21:00",5.2,3.2,0.2,0.0,0,1004.1,5,13,1.2,87
"2018-04-30 05:22:00",5.2,3.2,0.2,0.0,0,1004.2,3,5,3.4,87
"2018-04-30 05:23:00",5.3,3.3,0.2,0.0,0,1004.2,4,7,2.6,87
"2018-04-30 05:24:00",5.3,3.3,0.2,0.0,0,1004.1,2,4,3.9,87
"2018-04-30 05:25:00",5.3,3.3,0.2,0.0,0,1004.2,3,5,3.5,87
"2018-04-30 05:26:00",5.3,3.3,0.2,0.0,0,1004.2,4,6,3.1,87
"2018-04-30 05:27:00",5.3,3.3,0.2,0.0,0,1004.1,3,7,2.8,87
"2018-04-30 05:28:00",5.3,3.3,0.2,0.0,0,1004.1,3,4,3.9,87
"2018-04-30 05:29:00",5.3,3.3,0.2,0.0,0,1004.1,4,7,2.8,87
"2018-04-30 05:30:00",5.3,3.3,0.2,0.0,0,1004.1,3,9,2.2,87
"2018-04-30 05:31:00",5.3,3.3,0.2,0.0,0,1004.1,2,3,"",87
"2018-04-30 05:32:00",5.2,3.2,0.2,0.0,0,1004.1,2,3,"",87
"2018-04-30 05:33:00",5.2,3.2,0.2,0.0,0,1004.1,2,3,"",87
"2018-04-30 05:34:00",5.2,3.2,0.2,0.0,0,1004.1,3,5,3.4,87
"2018-04-30 05:35:00",5.2,3.2,0.2,0.0,0,1004.1,2,3,"",87
"2018-04-30 05:36:00",5.2,3.2,0.2,0.0,0,1004.1,2,3,"",87
"2018-04-30 05:37:00",5.2,3.2,0.2,0.0,0,1004.0,4,9,2.1,87
"2018-04-30 05:38:00",5.2,3.2,0.2,0.0,0,1004.1,3,3,"",87
"2018-04-30 05:39:00",5.2,3.2,0.2,0.0,0,1004.2,4,6,3.0,87
"2018-04-30 05:40:00",5.2,3.2,0.2,0.0,0,1004.1,6,12,1.4,87
"2018-04-30 05:41:00",5.2,3.2,0.2,0.0,0,1004.0,3,5,3.4,87
"2018-04-30 05:42:00",5.3,3.3,0.2,0.0,0,1004.2,2,4,3.8,87
"2018-04-30 05:43:00",5.3,3.3,0.2,0.0,0,1004.1,3,5,3.5,87
"2018-04-30 05:44:00",5.3,3.3,0.2,0.0,0,1004.2,4,7,2.8,87
"2018-04-30 05:45:00",5.3,3.3,0.2,0.0,0,1004.1,2,4,3.9,87
"2018-04-30 05:46:00",5.3,3.1,0.2,0.0,0,1004.1,2,4,3.9,86
"2018-04-30 05:47:00",5.3,3.1,0.2,0.0,0,1004.1,4,7,2.8,86
"2018-04-30 05:48:00",5.3,3.3,0.2,0.0,0,1004.0,4,8,2.5,87
"2018-04-30 05:49:00",5.3,3.3,0.2,0.0,0,1004.0,3,8,2.5,87
"2018-04-30 05:50:00",5.3,3.3,0.2,0.0,0,1004.0,3,5,3.5,87
"2018-04-30 05:51:00",5.3,3.3,0.2,0.0,0,1004.1,2,3,"",87
"2018-04-30 05:52:00",5.3,3.3,0.2,0.0,0,1004.0,4,9,2.2,87
"2018-04-30 05:53:00",5.3,3.3,0.2,0.0,0,1004.0,4,6,3.0,87
"2018-04-30 05:54:00",5.3,3.1,0.2,0.0,0,1004.0,3,6,3.1,86
"2018-04-30 05:55:00",5.3,3.1,0.2,0.0,0,1004.0,3,4,3.9,86
"2018-04-30 05:56:00",5.3,3.1,0.2,0.0,0,1004.0,2,3,"",86
"2018-04-30 05:57:00",5.3,3.1,0.2,0.0,0,1004.0,4,7,2.8,86
"2018-04-30 05:58:00",5.3,3.1,0.2,0.0,0,1004.1,3,6,3.1,86
"2018-04-30 05:59:00",5.3,3.1,0.2,0.0,0,1004.0,3,4,3.9,86
"2018-04-30 06:00:00",5.3,3.1,0.2,0.0,0,1004.0,3,5,3.5,86
"2018-04-30 06:01:00",5.3,3.1,0.2,0.0,0,1003.9,2,3,"",86
"2018-04-30 06:02:00",5.3,3.1,0.2,0.0,0,1003.9,3,6,3.1,86
"2018-04-30 06:03:00",5.3,3.1,0.2,0.0,0,1004.0,4,5,3.5,86
"2018-04-30 06:04:00",5.3,3.1,0.2,0.0,0,1004.0,3,5,3.5,86
"2018-04-30 06:05:00",5.3,3.1,0.2,0.0,0,1004.0,2,3,"",86
"2018-04-30 06:06:00",5.3,3.1,0.2,0.0,0,1004.0,2,3,"",86
"2018-04-30 06:07:00",5.3,3.1,0.2,0.0,0,1003.9,4,8,2.5,86
"2018-04-30 06:08:00",5.3,3.1,0.2,0.0,0,1003.9,3,4,3.9,86
"2018-04-30 06:09:00",5.3,3.1,0.2,0.0,5,1003.9,2,4,3.9,86
"2018-04-30 06:10:00",5.3,3.1,0.2,0.0,5,1003.8,4,9,2.2,86
"2018-04-30 06:11:00",5.3,3.1,0.2,0.0,5,1003.8,3,6,3.1,86
"2018-04-30 06:12:00",5.3,3.1,0.2,0.0,5,1003.8,3,7,2.8,86
"2018-04-30 06:13:00",5.3,3.1,0.2,0.0,5,1003.8,2,3,"",86
"2018-04-30 06:14:00",5.3,3.1,0.2,0.0,5,1003.9,3,5,3.5,86
"2018-04-30 06:15:00",5.3,3.1,0.2,0.0,5,1003.8,2,3,"",86
"2018-04-30 06:16:00",5.3,3.1,0.2,0.0,7,1003.8,2,3,"",86
"2018-04-30 06:17:00",5.3,3.1,0.2,0.0,5,1003.8,2,5,3.5,86
"2018-04-30 06:18:00",5.3,3.1,0.2,0.0,5,1003.8,2,2,"",86
"2018-04-30 06:19:00",5.3,3.1,0.2,0.0,5,1003.8,2,4,3.9,86
"2018-04-30 06:20:00",5.3,3.1,0.2,0.0,5,1003.8,6,10,2.0,86
"2018-04-30 06:21:00",5.3,3.1,0.2,0.0,5,1003.8,2,4,3.9,86
"2018-04-30 06:22:00",5.2,3.0,0.2,0.0,5,1003.8,3,6,3.1,86
"2018-04-30 06:23:00",5.3,3.1,0.2,0.0,5,1003.7,2,4,3.8,86
"2018-04-30 06:24:00",5.3,3.1,0.2,0.0,5,1003.7,2,4,3.9,86
"2018-04-30 06:25:00",5.3,3.1,0.2,0.0,5,1003.8,4,8,2.5,86
"2018-04-30 06:26:00",5.3,3.1,0.2,0.0,7,1003.8,3,4,3.9,86
"2018-04-30 06:27:00",5.3,3.1,0.2,0.0,7,1003.8,4,7,2.8,86
"2018-04-30 06:28:00",5.3,3.1,0.2,0.0,7,1003.8,3,5,3.4,86
"2018-04-30 06:29:00",5.2,3.0,0.2,0.0,9,1003.8,3,6,3.0,86
"2018-04-30 06:30:00",5.3,3.1,0.2,0.0,11,1003.8,3,5,3.5,86
"2018-04-30 06:31:00",5.2,3.0,0.2,0.0,9,1003.8,3,8,2.3,86
"2018-04-30 06:32:00",5.2,3.0,0.2,0.0,11,1003.8,3,4,3.8,86
"2018-04-30 06:33:00",5.2,3.0,0.2,0.0,11,1003.8,2,3,"",86
"2018-04-30 06:34:00",5.3,3.1,0.2,0.0,11,1003.9,2,3,"",86
"2018-04-30 06:35:00",5.3,3.1,0.2,0.0,11,1003.8,3,6,3.1,86
"2018-04-30 06:36:00",5.3,3.1,0.2,0.0,11,1003.9,4,9,2.2,86
"2018-04-30 06:37:00",5.3,3.1,0.2,0.0,11,1003.8,3,5,3.5,86
"2018-04-30 06:38:00",5.3,3.1,0.2,0.0,11,1003.8,4,11,1.7,86
"2018-04-30 06:39:00",5.3,3.1,0.2,0.0,9,1003.9,2,3,"",86
"2018-04-30 06:40:00",5.3,3.1,0.2,0.0,11,1003.9,2,3,"",86
"2018-04-30 06:41:00",5.3,3.1,0.2,0.0,12,1003.8,1,2,"",86
"2018-04-30 06:42:00",5.2,3.0,0.2,0.0,11,1003.9,2,3,"",86
"2018-04-30 06:43:00",5.2,3.0,0.2,0.0,11,1003.9,2,3,"",86
"2018-04-30 06:44:00",5.2,3.0,0.2,0.0,11,1003.8,2,5,3.4,86
"2018-04-30 06:45:00",5.2,3.0,0.2,0.0,12,1003.8,2,3,"",86
"2018-04-30 06:46:00",5.2,3.0,0.2,0.0,14,1003.8,2,3,"",86
"2018-04-30 06:47:00",5.2,3.0,0.2,0.0,14,1003.8,2,3,"",86
"2018-04-30 06:48:00",5.2,3.2,0.2,0.0,12,1003.9,3,7,2.6,87
"2018-04-30 06:49:00",5.2,3.2,0.2,0.0,14,1003.8,3,5,3.4,87
"2018-04-30 06:50:00",5.2,3.2,0.2,0.0,14,1003.8,2,4,3.8,87
"2018-04-30 06:51:00",5.2,3.2,0.2,0.0,14,1003.8,3,4,3.8,87